Location: Roanoke
(37.2710°N, 79.9420°W)
Time: 13:30:15
(UTC-05:00)

Transit 2A - Pass Details

Date: 24 November 2019
Orbit: 602 x 957 km, 66.7° (Epoch: 14 December)

Event Time Altitude Azimuth Distance (km) Brightness Sun altitude
Rises 12:27:25 0° 258° (WSW) 3,142 9.4 31.9°
Reaches altitude 10° 12:31:18 10° 287° (WNW) 2,139 8.3 31.8°
Maximum altitude 12:33:20 12° 312° (NW) 1,938 7.9 31.8°
Drops below altitude 10° 12:35:18 10° 337° (NNW) 2,066 7.9 31.7°
Sets 12:38:55 0° 8° (N) 2,921 8.5 31.6°
